"Time","Temp","Dewpoint","Humidity","Pressure","Direction","Speed","Gust","Precip","PrecipRate"
"00:04:59","74.3","67","78","29.88","350","0.6","2.4","0.00","0.00"
"00:09:57","74.2","66.9","78","29.88","350","0.4","2.4","0.00","0.00"
"00:14:59","74.2","66.9","78","29.88","350","0","1.2","0.00","0.00"
"00:19:56","74.1","66.8","78","29.88","350","0","0","0.00","0.00"
"00:24:57","74.1","66.8","78","29.88","350","0","0","0.00","0.00"
"00:29:58","74","66.7","78","29.88","350","0","0","0.00","0.00"
"00:34:58","73.8","66.9","79","29.88","350","0","0","0.00","0.00"
"00:39:56","73.6","66.7","79","29.88","350","0.1","1.2","0.00","0.00"
"00:44:57","73.4","66.5","79","29.89","350","0.2","1.2","0.00","0.00"
"00:49:58","73.5","66.6","79.2","29.89","350","0.1","1.2","0.00","0.00"
"00:54:59","73.4","66.9","79.9","29.89","350","0","1.2","0.00","0.00"
"00:59:56","73.5","66.9","80","29.89","350","0.1","1.2","0.00","0.00"
"01:04:57","73.5","66.9","80","29.88","350","0","1.2","0.00","0.00"
"01:09:56","73.3","66.9","80.3","29.88","350","0","0","0.00","0.00"
"01:14:57","73.2","67","81","29.88","350","0","0","0.00","0.00"
"01:19:58","73","67.1","81.9","29.88","350","0","0","0.00","0.00"
"01:24:58","72.8","67","82","29.88","350","0.1","1.2","0.00","0.00"
"01:29:59","72.7","66.9","82","29.88","350","0.3","1.2","0.00","0.00"
"01:34:56","72.6","67","82.7","29.88","350","0","0","0.00","0.00"
"01:39:58","72.6","66.9","82.2","29.88","350","0","0","0.00","0.00"
"01:44:56","72.6","66.8","82","29.88","350","0","0","0.00","0.00"
"01:49:56","72.6","66.9","82.3","29.88","350","0.7","2.4","0.00","0.00"
"01:54:57","72.7","66.9","82","29.88","350","0.6","2.4","0.00","0.00"
"01:59:58","72.8","67","82","29.88","350","0.6","2.4","0.00","0.00"
"02:04:58","72.8","66.6","81.1","29.87","350","0.8","2.4","0.00","0.00"
"02:09:57","72.7","66.5","81","29.87","350","0.4","2.4","0.00","0.00"
"02:14:58","72.6","66.8","82","29.87","350","0","1.2","0.00","0.00"
"02:19:59","72.4","66.6","82","29.87","350","0","0","0.00","0.00"
"02:24:56","72.3","66.6","82.5","29.87","350","0","0","0.00","0.00"
"02:29:57","72.2","66.6","82.6","29.87","350","0","0","0.00","0.00"
"02:34:57","72.1","66.5","82.7","29.87","350","0","0","0.00","0.00"
"02:39:59","72","66.6","83","29.87","350","0","0","0.00","0.00"
"02:44:56","71.9","66.5","83","29.87","350","0","0","0.00","0.00"
"02:49:56","71.8","66.4","83","29.87","350","0","0","0.00","0.00"
"02:54:57","71.9","66.5","83","29.87","350","0","0","0.00","0.00"
"02:59:58","71.9","66.8","84","29.87","350","0","0","0.00","0.00"
"03:04:59","71.9","66.6","83.2","29.87","350","0","0","0.00","0.00"
"03:09:58","72","66.6","83","29.87","350","0","0","0.00","0.00"
"03:14:56","72.1","66.6","83","29.87","350","0","0","0.00","0.00"
"03:19:57","72.2","66.7","83","29.87","350","0","0","0.00","0.00"
"03:24:59","72.1","66.8","83.5","29.87","350","0","0","0.00","0.00"
"03:29:56","72","66.6","83","29.87","350","0","0","0.00","0.00"
"03:34:57","72","66.6","83","29.87","350","0","0","0.00","0.00"
"03:39:56","72","66.6","83","29.87","350","0","0","0.00","0.00"
"03:44:54","72.1","66.6","83","29.87","354","0.6","3.6","0.00","0.00"
"03:49:55","72.1","66.6","83","29.87","355","0.5","2.4","0.00","0.00"
"03:54:57","72.1","66.6","83","29.87","355","0","0","0.00","0.00"
"03:59:56","72","66.6","83","29.87","355","0","0","0.00","0.00"
"04:04:56","72","66.7","83.5","29.87","355","0.6","2.4","0.00","0.00"
"04:09:59","72","66.9","84","29.87","355","0","1.2","0.00","0.00"
"04:14:59","72","66.8","83.8","29.87","355","0.1","1.2","0.00","0.00"
"04:19:57","71.8","66.8","84.2","29.87","355","0.7","2.4","0.00","0.00"
"04:24:57","71.6","66.8","85","29.87","355","0.7","2.4","0.00","0.00"
"04:29:58","71.5","66.8","85","29.87","355","0","0","0.00","0.00"
"04:34:59","71.4","66.7","85","29.87","355","0.2","1.2","0.00","0.00"
"04:39:57","71.3","66.6","85","29.87","355","0.1","1.2","0.00","0.00"
"04:44:58","71.3","66.6","85","29.87","355","0.3","2.4","0.00","0.00"
"04:49:59","71.3","66.6","85","29.87","355","0.2","1.2","0.00","0.00"
"04:54:59","71.2","66.5","85","29.87","355","0","1.2","0.00","0.00"
"04:59:56","71.2","66.5","85","29.87","355","0","1.2","0.00","0.00"
"05:04:56","71","66.5","85.5","29.87","355","0.2","1.2","0.00","0.00"
"05:09:56","70.8","66.4","86","29.87","355","0","0","0.00","0.00"
"05:14:58","70.6","66.2","86","29.87","355","0","1.2","0.00","0.00"
"05:19:59","70.4","66","86","29.87","355","0.9","2.4","0.00","0.00"
"05:24:59","70.4","66","86","29.87","355","0.7","2.4","0.00","0.00"
"05:29:57","70.5","66.1","86","29.88","355","0","1.2","0.00","0.00"
"05:34:57","70.4","66","86","29.88","355","0","0","0.00","0.00"
"05:39:59","70.2","66","86.7","29.88","355","0.1","1.2","0.00","0.00"
"05:44:56","69.9","65.9","87","29.89","355","0","0","0.00","0.00"
"05:49:57","69.7","65.7","87","29.89","355","0.1","1.2","0.00","0.00"
"05:54:58","69.5","65.8","88","29.89","355","0.1","1.2","0.00","0.00"
"05:59:59","69.3","65.6","88","29.89","355","0","1.2","0.00","0.00"
"06:04:59","69.2","65.5","88","29.89","355","0.1","1.2","0.00","0.00"
"06:09:59","69.1","65.5","88.4","29.89","355","0.3","1.2","0.00","0.00"
"06:14:57","69.1","65.7","89","29.90","355","0","1.2","0.00","0.00"
"06:19:58","69.1","65.7","89","29.90","355","0","0","0.00","0.00"
"06:24:59","69.1","65.7","89","29.90","355","0","0","0.00","0.00"
"06:29:56","69","65.6","89","29.90","355","0","0","0.00","0.00"
"06:34:57","68.9","65.5","89","29.90","355","0","0","0.00","0.00"
"06:39:56","68.8","65.4","89.2","29.90","355","0","0","0.00","0.00"
"06:44:56","68.7","65.6","90","29.90","355","0","0","0.00","0.00"
"06:49:56","68.7","65.6","90","29.90","355","0","0","0.00","0.00"
"06:54:58","68.8","65.7","90","29.90","355","0","1.2","0.00","0.00"
"06:59:56","68.8","65.6","89.5","29.90","355","0","0","0.00","0.00"
"07:04:56","69","65.6","89","29.90","355","0.2","2.4","0.00","0.00"
"07:09:59","69.3","65.8","88.6","29.90","355","0.1","2.3","0.00","0.00"
"07:14:56","69.6","65.9","88","29.91","355","0.4","2.4","0.00","0.00"
"07:19:59","69.8","66","87.6","29.91","355","0.1","1.2","0.00","0.00"
"07:24:59","70.1","66","87","29.91","355","0","0","0.00","0.00"
"07:29:58","70.3","66.2","87","29.91","355","0","1.2","0.00","0.00"
"07:34:57","70.6","66.3","86.2","29.91","355","0.4","2.4","0.00","0.00"
"07:39:58","70.9","66.5","86","29.91","355","0","1.2","0.00","0.00"
"07:44:58","71.2","66.7","85.6","29.92","334","0.1","1.2","0.00","0.00"
"07:49:58","71.5","66.8","85","29.92","340","0.4","3.6","0.00","0.00"
"07:54:58","71.8","66.8","84.3","29.92","344","0.1","1.2","0.00","0.00"
"07:59:59","72.2","67.1","84","29.92","348","0.8","2.4","0.00","0.00"
"08:04:58","72.5","67.1","83.2","29.92","349","0.8","2.4","0.00","0.00"
"08:09:57","72.8","67.2","82.7","29.92","351","1.4","3.6","0.00","0.00"
"08:14:58","73","67.3","82.2","29.92","353","1.7","4.8","0.00","0.00"
"08:19:58","73.3","67.5","82","29.92","355","0","1.2","0.00","0.00"
"08:24:58","73.6","67.5","81.1","29.92","355","0.2","2.4","0.00","0.00"
"08:29:58","73.8","67.6","81","29.92","355","0.5","3.6","0.00","0.00"
"08:34:58","74","67.6","80.5","29.92","355","0.4","2.4","0.00","0.00"
"08:39:56","74.1","67.7","80.3","29.92","355","0.6","3.6","0.00","0.00"
"08:44:59","74.3","67.6","79.7","29.92","353","1.6","3.6","0.00","0.00"
"08:49:59","74.4","67.8","79.9","29.92","354","0.9","4.8","0.00","0.00"
"08:54:59","74.7","67.8","79.2","29.92","350","1.9","4.8","0.00","0.00"
"08:59:59","75.2","68","78.3","29.92","354","0.6","3.6","0.00","0.00"
"09:04:59","75.7","68.1","77.4","29.92","348","1.3","6","0.00","0.00"
"09:09:58","76.1","68.1","76.3","29.92","351","1","3.6","0.00","0.00"
"09:14:59","76.6","68.7","76.4","29.92","354","1.2","7.2","0.00","0.00"
"09:19:56","77.3","68.8","75.2","29.92","355","0","1.2","0.00","0.00"
"09:24:59","78","69","74","29.92","342","0.8","3.6","0.00","0.00"
"09:29:56","78.8","68.9","71.8","29.92","343","1.2","4.8","0.00","0.00"
"09:34:58","79.4","68.9","70.3","29.92","4","0.8","3.6","0.00","0.00"
"09:39:56","79.7","69","69.9","29.92","5","0.6","3.6","0.00","0.00"
"09:44:58","79.9","69","69.3","29.92","355","1.4","4.8","0.00","0.00"
"09:49:56","80.1","69","69.1","29.92","0","1.4","6","0.00","0.00"
"09:54:57","80.4","69.4","69.1","29.92","4","1.2","6","0.00","0.00"
"09:59:59","80.9","69","67.3","29.92","345","2.3","7.2","0.00","0.00"
"10:04:56","80.9","68.9","67","29.92","343","4","12","0.00","0.00"
"10:09:57","81","69.1","67.3","29.92","359","3.4","7.2","0.00","0.00"
"10:14:59","81.4","69.8","68","29.92","340","1.6","4.8","0.00","0.00"
"10:19:57","81.3","69.2","66.8","29.92","29","1.5","3.6","0.00","0.00"
"10:24:58","81.8","69.6","66.7","29.92","349","1.2","6","0.00","0.00"
"10:29:59","82.4","69.8","65.6","29.92","344","0.8","2.4","0.00","0.00"
"10:34:57","82.4","69.6","65.3","29.92","328","1.9","6","0.00","0.00"
"10:39:59","82.5","69.4","64.6","29.92","322","1.7","6","0.00","0.00"
"10:44:56","83","69.7","64.2","29.92","324","1.3","4.6","0.00","0.00"
"10:49:58","83.6","69.7","63.1","29.92","16","1.3","4.8","0.00","0.00"
"10:54:59","83.5","69.5","62.8","29.92","338","1.6","7.2","0.00","0.00"
"10:59:56","83.2","68.4","61","29.92","336","2.7","7.2","0.00","0.00"
"11:04:58","83.5","69","61.9","29.92","356","1.6","4.8","0.00","0.00"
"11:09:59","83.8","69.1","61.4","29.92","2","2.1","6","0.00","0.00"
"11:14:57","84.4","69","60.2","29.92","343","2.6","8.4","0.00","0.00"
"11:19:59","84.1","68.4","59.4","29.92","346","4.1","8.4","0.00","0.00"
"11:24:56","83.9","68.7","60.5","29.92","343","3.2","6","0.00","0.00"
"11:29:58","84.2","68.6","59.5","29.92","342","3.5","10.8","0.00","0.00"
"11:34:59","84.8","69.1","59.5","29.92","347","0.6","2.4","0.00","0.00"
"11:39:58","85.4","69.4","59","29.92","345","1.2","6","0.00","0.00"
"11:44:59","85.1","69.2","59.1","29.92","335","1.4","4.8","0.00","0.00"
"11:49:57","84.1","68.1","58.8","29.92","326","1.2","3.6","0.00","0.00"
"11:54:58","83.9","68.2","59.3","29.92","86","1.4","6","0.00","0.00"
"11:59:56","84.9","69.6","60.4","29.92","111","1.1","2.4","0.00","0.00"
"12:04:58","85.2","68.4","57.2","29.92","104","1","4.8","0.00","0.00"
"12:09:59","84.9","67.7","56.4","29.92","341","1.7","4.6","0.00","0.00"
"12:14:57","85.9","69.2","57.7","29.92","4","1.7","4.8","0.00","0.00"
"12:19:59","86.4","68.7","55.8","29.91","358","2.9","8.4","0.00","0.00"
"12:24:56","86.4","68.6","55.5","29.91","355","0.9","3.6","0.00","0.00"
"12:29:58","86.8","69.9","57.3","29.91","30","1.1","3.6","0.00","0.00"
"12:34:56","87.1","69.4","55.7","29.90","60","1.7","4.8","0.00","0.00"
"12:39:59","87.7","69.5","55.1","29.90","340","1.2","4.8","0.00","0.00"
"12:44:56","88","69.2","54","29.90","342","1.4","4.6","0.00","0.00"
"12:49:59","87.8","69.1","54","29.90","344","2.5","8.4","0.00","0.00"
"12:54:56","88","69.5","54.4","29.90","4","1.4","6","0.00","0.00"
"12:59:57","88.2","68.9","52.8","29.90","338","1.5","4.8","0.00","0.00"
"13:04:56","87.8","68","51.9","29.90","351","2.4","6","0.00","0.00"
"13:09:57","87.7","68.5","53.2","29.90","107","1.9","4.8","0.00","0.00"
"13:14:56","88.5","69.1","53","29.90","345","2.5","9.6","0.00","0.00"
"13:19:58","88.5","68.1","50.9","29.90","48","2","6","0.00","0.00"
"13:24:59","87","66.8","51.2","29.90","148","0.8","3.5","0.00","0.00"
"13:29:58","86.9","67.7","52.9","29.90","148","1.2","3.6","0.00","0.00"
"13:34:59","87.9","68.6","53.1","29.90","148","0.8","3.6","0.00","0.00"
"13:39:59","88.6","68.6","51.8","29.90","154","2.3","6","0.00","0.00"
"13:44:56","88.1","67.7","51","29.90","183","3","6","0.00","0.00"
"13:49:58","87.9","68.3","52.5","29.90","145","1.4","3.6","0.00","0.00"
"13:54:56","87.2","68","52.9","29.90","77","2.2","6","0.00","0.00"
"13:59:58","87.4","68","52.6","29.90","338","3.2","7.2","0.00","0.00"
"14:04:59","88.6","69.3","53","29.89","349","2.8","7.2","0.00","0.00"
"14:09:59","88.7","69","52.2","29.89","15","1","5.8","0.00","0.00"
"14:14:58","88.3","68.6","52.3","29.89","29","1.7","3.6","0.00","0.00"
"14:19:56","87.7","68","52.2","29.89","124","2.7","6","0.00","0.00"
"14:24:58","87.7","68.3","52.8","29.89","132","1.8","5.8","0.00","0.00"
"14:29:59","88.3","68.9","52.7","29.89","127","2.9","6","0.00","0.00"
"14:34:57","88.6","68.8","52","29.88","143","1.9","5.8","0.00","0.00"
"14:39:56","89.5","69.2","51.3","29.88","129","1.4","3.6","0.00","0.00"
"14:44:57","90","68.8","50","29.88","122","1.5","3.6","0.00","0.00"
"14:49:56","89.2","67.7","49.3","29.87","108","2.6","6","0.00","0.00"
"14:54:57","89","69","51.7","29.87","121","1.2","7.2","0.00","0.00"
"14:59:59","90.1","69.5","50.9","29.87","120","2.6","6.9","0.00","0.00"
"15:04:56","88.7","68.2","50.8","29.87","126","2","4.6","0.00","0.00"
"15:09:57","89.1","69.4","52.3","29.87","133","1.3","3.6","0.00","0.00"
"15:14:59","90.3","69","49.8","29.87","57","2","4.8","0.00","0.00"
"15:19:57","89.8","68.9","50.4","29.86","323","2.1","7.2","0.00","0.00"
"15:24:59","88.8","68.3","50.8","29.86","33","2.1","4.8","0.00","0.00"
"15:29:56","87.6","68.1","52.5","29.86","121","0.8","2.4","0.00","0.00"
"15:34:57","87.3","68.2","53.3","29.86","108","1","3.6","0.00","0.00"
"15:39:56","87.6","68.3","53.1","29.86","104","0.7","3.5","0.00","0.00"
"15:44:58","89.2","69.6","52.6","29.86","109","1.7","7.2","0.00","0.00"
"15:49:56","89.5","69.4","51.8","29.86","332","0.9","3.5","0.00","0.00"
"15:54:57","88.9","68.9","51.9","29.86","34","1.3","4.8","0.00","0.00"
"15:59:59","89.9","69.9","52","29.86","12","1.5","3.6","0.00","0.00"
"16:04:57","89.8","69","50.5","29.86","60","2.1","10.8","0.00","0.00"
"16:09:57","88.2","68.4","52.1","29.86","88","1.6","4.8","0.00","0.00"
"16:14:59","88.3","68.8","52.5","29.86","19","1.3","6","0.00","0.00"
"16:19:57","89.4","68.9","51","29.86","64","1.3","3.6","0.00","0.00"
"16:24:58","89.5","69.1","51.2","29.86","90","1.3","3.6","0.00","0.00"
"16:29:56","89.7","68.6","50","29.86","128","2.6","7.2","0.00","0.00"
"16:34:57","88.2","67","49.6","29.86","134","2.5","6","0.00","0.00"
"16:39:56","87.3","67.3","51.5","29.86","134","1.5","4.8","0.00","0.00"
"16:44:58","87","67.3","52.1","29.86","135","1.3","4.6","0.00","0.00"
"16:49:56","86.7","67.3","52.6","29.86","135","1.9","4.8","0.00","0.00"
"16:54:57","86.6","67.4","53","29.86","123","0.8","3.6","0.00","0.00"
"16:59:59","86.5","67.7","53.7","29.86","130","1.7","4.8","0.00","0.00"
"17:04:57","86.4","67.7","53.9","29.86","135","0.8","2.4","0.00","0.00"
"17:09:57","86.4","67.7","53.8","29.86","135","1.8","4.8","0.00","0.00"
"17:14:56","86.6","68","54.2","29.86","137","1.2","3.6","0.00","0.00"
"17:19:58","86.6","68.1","54.1","29.86","138","1.4","3.6","0.00","0.00"
"17:24:59","86.9","68.2","53.9","29.86","138","1.3","3.6","0.00","0.00"
"17:29:57","87.8","68.8","53.5","29.86","159","1.9","6","0.00","0.00"
"17:34:59","87.6","69.1","54.4","29.86","142","1.9","6","0.00","0.00"
"17:39:57","87.3","69.1","54.9","29.86","117","3.3","12","0.00","0.00"
"17:44:59","86.8","71.5","60.6","29.86","138","4.2","14.4","0.00","0.00"
"17:49:57","85.5","72.4","65","29.86","178","5","15","0.00","0.00"
"17:54:58","84.4","72.3","67","29.86","169","4.3","13.2","0.00","0.00"
"17:59:56","83.7","71.8","67.4","29.86","177","4.6","13.2","0.00","0.00"
"18:04:57","83.5","71.8","68","29.86","182","3.9","16.8","0.00","0.00"
"18:09:58","83.2","71.7","68.5","29.86","163","3.9","17.3","0.00","0.00"
"18:14:56","83","71.3","68","29.87","164","4.6","10.8","0.00","0.00"
"18:19:58","82.8","71.3","68.3","29.87","152","3.4","15","0.00","0.00"
"18:24:59","82.7","71.1","68","29.87","169","3","12.7","0.00","0.00"
"18:29:57","82.6","70.7","67.4","29.87","149","4.1","10.8","0.00","0.00"
"18:34:59","82.4","70.1","66.5","29.87","132","3.2","8.4","0.00","0.00"
"18:39:57","82.2","70.1","67","29.87","139","3.7","12","0.00","0.00"
"18:44:59","82.1","70.1","67","29.88","144","2.6","8.4","0.00","0.00"
"18:49:57","81.9","69.9","67","29.88","171","3.8","12","0.00","0.00"
"18:54:58","81.6","69.6","67","29.88","172","4","9.6","0.00","0.00"
"18:59:56","81.4","69.5","67.2","29.88","171","3.3","7.2","0.00","0.00"
"19:04:57","81.3","69.4","67.1","29.88","166","3.2","7.2","0.00","0.00"
"19:09:58","81.2","69.5","67.7","29.88","166","2","8.4","0.00","0.00"
"19:14:56","81.1","69.3","67.5","29.89","158","0.2","4.8","0.00","0.00"
"19:19:56","81","69","67","29.89","147","1.4","4.8","0.00","0.00"
"19:24:58","80.8","68.8","67","29.89","140","1.5","2.4","0.00","0.00"
"19:29:57","80.6","68.6","67","29.89","158","2.1","6","0.00","0.00"
"19:34:58","80.4","68.4","67","29.89","159","1.3","3.5","0.00","0.00"
"19:39:58","80.3","68.3","67","29.89","160","1","2.4","0.00","0.00"
"19:44:59","80.1","68.2","67","29.89","160","1","2.4","0.00","0.00"
"19:49:57","80","68.1","67.1","29.89","169","1.5","6","0.00","0.00"
"19:54:59","79.8","68.2","67.9","29.89","178","0.9","3.6","0.00","0.00"
"19:59:58","79.6","68.3","68.5","29.89","178","0.8","2.4","0.00","0.00"
"20:04:56","79.4","68.2","68.8","29.89","173","1.2","3.6","0.00","0.00"
"20:09:56","79.2","68.5","69.8","29.89","173","1.4","6","0.00","0.00"
"20:14:56","79.1","68.5","70","29.90","172","2.2","5.8","0.00","0.00"
"20:19:58","79","68.7","70.9","29.90","171","0.8","3.6","0.00","0.00"
"20:24:59","78.8","68.8","71.5","29.90","171","1.8","4.8","0.00","0.00"
"20:29:56","78.6","68.8","72","29.90","171","0.8","4.6","0.00","0.00"
"20:34:56","78.5","68.9","72.7","29.90","170","0.9","4.8","0.00","0.00"
"20:39:58","78.4","69","73","29.90","166","0.7","4.6","0.00","0.00"
"20:44:59","78.3","69.1","73.5","29.91","163","1.3","3.6","0.00","0.00"
"20:49:56","78.2","69.2","74","29.91","161","0.8","4.8","0.00","0.00"
"20:54:56","78.1","69.1","74.2","29.91","164","1.7","4.8","0.00","0.00"
"20:59:57","77.8","69.2","75","29.92","165","1.4","3.6","0.00","0.00"
"21:04:57","77.7","69.4","75.9","29.92","165","1.3","3.6","0.00","0.00"
"21:09:56","77.6","69.4","76","29.92","159","0.9","4.8","0.00","0.00"
"21:14:58","77.5","69.3","76","29.92","166","1.6","6","0.00","0.00"
"21:19:59","77.5","69.4","76.3","29.92","153","1.7","4.8","0.00","0.00"
"21:24:59","77.3","69.5","77","29.92","158","1.7","4.8","0.00","0.00"
"21:29:56","77.2","69.4","77","29.92","160","1","3.6","0.00","0.00"
"21:34:57","77.1","69.4","77.4","29.92","161","1.5","3.6","0.00","0.00"
"21:39:59","77","69.6","78","29.92","161","1.3","4.8","0.00","0.00"
"21:44:56","76.9","69.5","78","29.92","161","0.7","2.4","0.00","0.00"
"21:49:57","76.8","69.4","78","29.92","161","0.3","2.4","0.00","0.00"
"21:54:58","76.7","69.6","78.6","29.92","161","0.3","2.4","0.00","0.00"
"21:59:59","76.6","69.6","79","29.93","161","0.4","2.4","0.00","0.00"
"22:04:59","76.5","69.5","79","29.93","161","0.1","1.2","0.00","0.00"
"22:09:58","76.4","69.4","79","29.93","161","0.4","2.4","0.00","0.00"
"22:14:59","76.2","69.5","79.7","29.93","161","0.3","2.4","0.00","0.00"
"22:19:56","76.1","69.5","80","29.93","161","0","0","0.00","0.00"
"22:24:57","76","69.4","80","29.93","161","0","0","0.00","0.00"
"22:29:58","75.8","69.3","80.1","29.93","161","0","0","0.00","0.00"
"22:34:58","75.5","69.3","81","29.93","161","0","1.2","0.00","0.00"
"22:39:57","75.3","69.3","81.6","29.93","161","0.1","1.2","0.00","0.00"
"22:44:57","75.2","69.3","82","29.93","161","0","1.2","0.00","0.00"
"22:49:58","75.1","69.2","82","29.93","161","0.1","1.2","0.00","0.00"
"22:54:58","74.8","69.3","82.8","29.93","161","0.2","1.2","0.00","0.00"
"22:59:56","74.6","69.2","83.2","29.94","161","0.4","3.6","0.00","0.00"
"23:04:56","74.6","69.4","83.9","29.94","161","0.4","3.6","0.00","0.00"
"23:09:59","74.7","69.5","84.2","29.94","161","0.3","3.5","0.00","0.00"
"23:14:56","74.7","69.5","84","29.94","161","0.5","2.4","0.00","0.00"
"23:19:57","74.8","69.6","84","29.93","161","0.7","4.8","0.00","0.00"
"23:24:57","74.9","70.1","85","29.93","158","1.5","4.8","0.00","0.00"
"23:29:58","75","70.2","84.9","29.94","156","1.7","4.8","0.00","0.00"
"23:34:59","75.1","70.2","84.8","29.94","157","0","1.2","0.00","0.00"
"23:39:57","75.2","70.4","85","29.94","157","0.3","2.4","0.00","0.00"
"23:44:57","75.1","70.3","85","29.94","157","1.5","3.6","0.00","0.00"
